Weather History for Windom, MN

Change the Weather History Date:

Thursday, November 3, 2011

  Actual Average Record
Temperature  
Mean Temperature 37 °F -  
Max Temperature 51 °F 47 °F 77 °F (1978)
Min Temperature 23 °F 29 °F 6 °F (1991)
Degree Days  
Heating Degree Days 28    
Moisture  
Dew Point 22 °F    
Average Humidity 61    
Maximum Humidity 93    
Minimum Humidity 24    
Precipitation  
Precipitation 0.03 in - - ()
Sea Level Pressure  
Sea Level Pressure 30.26 in    
Wind  
Wind Speed 6 mph (WNW)    
Max Wind Speed 14 mph    
Max Gust Speed -    
Visibility 10 miles    
Events      
Averages and records for this station are not official NWS values.
T = Trace of Precipitation, MM = Missing Value Source: NWS Daily Summary

Daily Weather History Graph

Daily Weather History Graph

Search for Another Location

Airport:

Trip Planner

Search our weather history database for the weather conditions in past years. The results will help you decide how hot, cold, wet, or windy it might be!

Date:

Astronomy

Nov. 03, 2011 Rise Set
Actual Time 7:59 AM CDT 6:08 PM CDT
Civil Twilight 7:28 AM CDT 6:38 PM CDT
Nautical Twilight 6:54 AM CDT 7:12 PM CDT
Astronomical Twilight 6:21 AM CDT 7:46 PM CDT
Moon 2:44 PM CDT (11/3) 12:58 AM CDT (11/3)
Length of Visible Light 11h 09m
Length of Day
10h 09m
First Quarter, 60% of the Moon is Illuminated
Nov 3
First Quarter
Nov 10
Full
Nov 18
Last Quarter
Nov 25
New
Dec 2
First Quarter

Hourly Weather History & Observations

Time (CDT) Temp. Windchill Dew Point Humidity Pressure Visibility Wind Dir Wind Speed Gust Speed Precip Events Conditions
12:12 AM 33.8 °F 26.4 °F 26.6 °F 75% 30.26 in 10.0 mi NNW 9.2 mph - N/A   Clear
12:53 AM 33.8 °F 24.8 °F 26.6 °F 75% 30.25 in 10.0 mi NNW 12.7 mph - N/A   Clear
1:13 AM 33.8 °F 24.3 °F 26.6 °F 75% 30.26 in 10.0 mi NNW 13.8 mph - N/A   Clear
1:32 AM 33.8 °F 24.8 °F 26.6 °F 75% 30.26 in 10.0 mi NNW 12.7 mph - N/A   Clear
1:53 AM 32.0 °F 24.8 °F 26.6 °F 80% 30.25 in 10.0 mi NNW 8.1 mph - N/A   Clear
2:12 AM 30.2 °F 26.7 °F 24.8 °F 80% 30.25 in 10.0 mi NNW 3.5 mph - N/A   Clear
2:32 AM 28.4 °F 24.6 °F 26.6 °F 93% 30.24 in 10.0 mi North 3.5 mph - N/A   Clear
2:53 AM 28.4 °F - 24.8 °F 86% 30.24 in 10.0 mi Calm Calm - N/A   Clear
3:13 AM 26.6 °F 21.2 °F 24.8 °F 93% 30.24 in 10.0 mi NW 4.6 mph - N/A   Clear
3:32 AM 28.4 °F 18.5 °F 24.8 °F 86% 30.25 in 10.0 mi NW 11.5 mph - N/A   Clear
3:53 AM 30.2 °F 21.3 °F 26.6 °F 86% 30.25 in 10.0 mi NNW 10.4 mph - N/A   Clear
4:12 AM 28.4 °F 18.5 °F 24.8 °F 86% 30.25 in 10.0 mi NNW 11.5 mph - N/A   Clear
4:32 AM 28.4 °F 19.7 °F 24.8 °F 86% 30.24 in 10.0 mi NNW 9.2 mph - N/A   Clear
4:53 AM 28.4 °F 23.3 °F 24.8 °F 86% 30.25 in 10.0 mi NNW 4.6 mph - N/A   Clear
5:13 AM 26.6 °F 21.2 °F 24.8 °F 93% 30.25 in 10.0 mi NNW 4.6 mph - N/A   Clear
5:32 AM 28.4 °F 18.5 °F 24.8 °F 86% 30.26 in 10.0 mi NW 11.5 mph - N/A   Clear
5:53 AM 30.2 °F 22.6 °F 24.8 °F 80% 30.27 in 10.0 mi NW 8.1 mph - N/A   Clear
6:12 AM 26.6 °F 21.2 °F 21.2 °F 80% 30.27 in 10.0 mi NW 4.6 mph - N/A   Clear
6:32 AM 26.6 °F - 21.2 °F 80% 30.28 in 10.0 mi Calm Calm - N/A   Clear
6:53 AM 26.6 °F - 21.2 °F 80% 30.29 in 10.0 mi Calm Calm - N/A   Clear
7:12 AM 26.6 °F - 23.0 °F 86% 30.29 in 10.0 mi Calm Calm - N/A   Clear
7:32 AM 26.6 °F - 23.0 °F 86% 30.30 in 10.0 mi Calm Calm - N/A   Clear
7:53 AM 24.8 °F - 21.2 °F 86% 30.31 in 10.0 mi Calm Calm - N/A   Clear
8:12 AM 23.0 °F - 19.4 °F 86% 30.31 in 10.0 mi Calm Calm - N/A   Clear
8:32 AM 23.0 °F 18.4 °F 19.4 °F 86% 30.30 in 10.0 mi West 3.5 mph - N/A   Clear
8:53 AM 26.6 °F 18.2 °F 21.2 °F 80% 30.30 in 10.0 mi West 8.1 mph - N/A   Clear
9:12 AM 28.4 °F 24.6 °F 24.8 °F 86% 30.30 in 10.0 mi West 3.5 mph - N/A   Clear
9:32 AM 30.2 °F 24.3 °F 24.8 °F 80% 30.30 in 10.0 mi WNW 5.8 mph - N/A   Clear
9:53 AM 35.6 °F 29.9 °F 26.6 °F 70% 30.30 in 10.0 mi WNW 6.9 mph - N/A   Clear
10:12 AM 39.2 °F 35.0 °F 26.6 °F 61% 30.30 in 10.0 mi WNW 5.8 mph - N/A   Clear
10:33 AM 42.8 °F - 28.4 °F 57% 30.30 in 10.0 mi Calm Calm - N/A   Clear
10:53 AM 44.6 °F - 26.6 °F 49% 30.29 in 10.0 mi Calm Calm - N/A   Clear
11:12 AM 46.4 °F 43.5 °F 26.6 °F 46% 30.30 in 10.0 mi North 5.8 mph - N/A   Clear
11:33 AM 46.4 °F 43.5 °F 24.8 °F 43% 30.29 in 10.0 mi North 5.8 mph - N/A   Clear
11:50 AM 48.2 °F - 24.8 °F 40% 30.28 in 10.0 mi Calm Calm - N/A   Clear
12:13 PM 48.2 °F - 23.0 °F 37% 30.27 in 10.0 mi Calm Calm - N/A   Clear
12:32 PM 50.0 °F - 23.0 °F 35% 30.26 in 10.0 mi Calm Calm - N/A   Clear
12:52 PM 51.8 °F - 21.2 °F 30% 30.26 in 10.0 mi East 3.5 mph - N/A   Clear
1:13 PM 51.8 °F - 21.2 °F 30% 30.25 in 10.0 mi NNW 3.5 mph - N/A   Clear
1:33 PM 51.8 °F - 19.4 °F 28% 30.24 in 10.0 mi Calm Calm - N/A   Clear
1:53 PM 48.2 °F - 17.6 °F 30% 30.23 in - Calm Calm - 0.03 in   Clear
2:13 PM 48.2 °F - 15.8 °F 27% 30.23 in 10.0 mi Calm Calm - N/A   Unknown
2:32 PM 48.2 °F - 15.8 °F 27% 30.24 in 10.0 mi Calm Calm - N/A   Clear
2:53 PM 50.0 °F - 15.8 °F 26% 30.22 in 10.0 mi Calm Calm - N/A   Clear
3:13 PM 51.8 °F - 17.6 °F 26% 30.22 in 10.0 mi WNW 3.5 mph - N/A   Clear
3:32 PM 50.0 °F - 15.8 °F 26% 30.22 in 10.0 mi SSW 5.8 mph - N/A   Clear
3:53 PM 50.0 °F - 15.8 °F 26% 30.22 in 10.0 mi WSW 3.5 mph - N/A   Clear
4:12 PM 51.8 °F - 15.8 °F 24% 30.22 in 10.0 mi WSW 3.5 mph - N/A   Clear
5:13 PM 50.0 °F - 15.8 °F 26% 30.22 in 10.0 mi SSW 3.5 mph - N/A   Clear
5:32 PM 48.2 °F - 17.6 °F 30% 30.22 in 10.0 mi South 5.8 mph - N/A   Clear
6:32 PM 42.8 °F - 17.6 °F 36% 30.23 in 10.0 mi Calm Calm - N/A   Clear
6:53 PM 42.8 °F - 17.6 °F 36% 30.23 in 10.0 mi Calm Calm - N/A   Clear
7:13 PM 41.0 °F - 17.6 °F 39% 30.23 in 10.0 mi Calm Calm - N/A   Clear
7:32 PM 35.6 °F - 17.6 °F 48% 30.23 in 10.0 mi Calm Calm - N/A   Clear
7:53 PM 35.6 °F - 17.6 °F 48% 30.23 in 10.0 mi Calm Calm - N/A   Clear
8:12 PM 35.6 °F 31.7 °F 15.8 °F 44% 30.23 in 10.0 mi SSE 4.6 mph - N/A   Clear
8:32 PM 33.8 °F 30.8 °F 21.2 °F 60% 30.22 in 10.0 mi South 3.5 mph - N/A   Clear
8:53 PM 33.8 °F 29.6 °F 26.6 °F 75% 30.22 in 10.0 mi South 4.6 mph - N/A   Clear
9:13 PM 28.4 °F 24.6 °F 15.8 °F 59% 30.22 in 10.0 mi SSW 3.5 mph - N/A   Clear
9:32 PM 32.0 °F 28.7 °F 17.6 °F 55% 30.22 in 10.0 mi SSW 3.5 mph - N/A   Clear
10:12 PM 30.2 °F 26.7 °F 19.4 °F 64% 30.23 in 10.0 mi South 3.5 mph - N/A   Clear
10:32 PM 30.2 °F 26.7 °F 19.4 °F 64% 30.23 in 10.0 mi South 3.5 mph - N/A   Clear
10:53 PM 28.4 °F 24.6 °F 17.6 °F 64% 30.23 in 10.0 mi South 3.5 mph - N/A   Clear
11:32 PM 26.6 °F 22.6 °F 17.6 °F 69% 30.23 in 10.0 mi South 3.5 mph - N/A   Clear
11:53 PM 28.4 °F 22.2 °F 17.6 °F 64% 30.22 in 10.0 mi South 5.8 mph - N/A   Clear